This is the latest recevied weather packets stored in our database for station/object OM8AKX-12. If no packets are shown the sender has not sent any weather packets the latest 10 day(s).
| Time | Temp. | Humidity | Pressure | Rain* | Wind** | Luminosity | Snow |
|---|---|---|---|---|---|---|---|
| 1787767571 | 20° C | 52% | 1014.4 hPa | - | - | - | - |
| 1787766671 | 20° C | 51% | 1014.4 hPa | - | - | - | - |
| 1787765771 | 20° C | 51% | 1014.2 hPa | - | - | - | - |
| 1787764872 | 20.56° C | 51% | 1014.1 hPa | - | - | - | - |
| 1787763971 | 20.56° C | 50% | 1014 hPa | - | - | - | - |
| 1787763071 | 21.11° C | 49% | 1013.9 hPa | - | - | - | - |
| 1787762171 | 21.67° C | 47% | 1013.8 hPa | - | - | - | - |
| 1787761271 | 22.22° C | 46% | 1013.7 hPa | - | - | - | - |
| 1787760371 | 23.33° C | 44% | 1013.6 hPa | - | - | - | - |
| 1787759471 | 23.33° C | 44% | 1013.4 hPa | - | - | - | - |
| 1787758571 | 22.78° C | 47% | 1013.4 hPa | - | - | - | - |
| 1787757671 | 22.78° C | 47% | 1013.6 hPa | - | - | - | - |
| 1787756771 | 22.78° C | 47% | 1013.5 hPa | - | - | - | - |
| 1787755871 | 22.78° C | 45% | 1013.5 hPa | - | - | - | - |
| 1787754970 | 24.44° C | 44% | 1013.5 hPa | - | - | - | - |
| 1787754071 | 24.44° C | 44% | 1013.5 hPa | - | - | - | - |
| 1787753170 | 23.33° C | 45% | 1013.6 hPa | - | - | - | - |
| 1787752270 | 23.33° C | 44% | 1013.6 hPa | - | - | - | - |
| 1787751370 | 23.33° C | 44% | 1013.6 hPa | - | - | - | - |
| 1787750470 | 22.78° C | 45% | 1013.5 hPa | - | - | - | - |
| 1787749570 | 22.78° C | 45% | 1013.5 hPa | - | - | - | - |
| 1787748670 | 22.78° C | 45% | 1013.4 hPa | - | - | - | - |
| 1787747770 | 23.33° C | 45% | 1013.5 hPa | - | - | - | - |
| 1787746870 | 22.78° C | 45% | 1013.5 hPa | - | - | - | - |
| 1787745970 | 22.22° C | 45% | 1013.5 hPa | - | - | - | - |
* Rain since midnight (hover to see other rain measurements)
** Current wind speed in m/s (hover to see current wind gust speed)